Погода в Банде Нейре

Индонезия     4°32′56″S   129°54′41″E
темп.,
°C
ветер,
м/с
пор.,
м/с
влажн.,
%
обл.,
%
осадки,
мм/ч
давл.,
гПа
погр.,
м
2 марта, вт
вт200:00+29зюз897586 1.5 1010893
03:00+29з797493 3.1 1008793
06:00+29зсз8974100 0.0 1009899
09:00+28зсз9107597 6.0 1011814
12:00+28сз7972100 1.7 1010931
15:00+28ссз466883 1.7 1008783
18:00+29зсз6771100 0.0 1008976
21:00+29зсз7870100 0.0 1010980
3 марта, ср
ср300:00+28с3373100 0.0 1011496
03:00+28ссв3372100 0.0 1009642
06:00+28сз2371100 0.0 1010633
09:00+28зсз2368100 0.0 1011672
12:00+29зсз5670100 0.1 1011949
15:00+29зсз71070100 0.4 10081104
18:00+28з7876100 0.4 1008582
21:00+29зсз2470100 1.3 1010520
4 марта, чт
чт400:00+29зсз4573100 0.0 1010613
03:00+28зсз5675100 1.8 1009725
06:00+29з7874100 0.2 1009895
09:00+28зсз6776100 0.8 1011830
12:00+28зсз5676100 4.4 1010515
15:00+29зсз5672100 4.9 1008758
18:00+29зсз677270 0.3 1008735
21:00+29з567245 2.9 1010568
5 марта, пт
пт500:00+29з677265 4.1 1010567
03:00+28з677383 7.6 1009672
06:00+29зсз5771100 0.2 1009798
09:00+29зсз567269 0.2 1011815
12:00+29з56710 2.4 1010734
15:00+29з67720 2.7 1007850
18:00+29з67740 0.1 1008769
21:00+29з67755 2.3 1010656
6 марта, сб
сб600:00+29з677557 1.7 1010709
03:00+28з787679 10.0 1008512
06:00+29з6774100 6.8 1009651
09:00+29з5671100 12.5 1011508
12:00+29зсз777168 4.1 1010677
15:00+29з897382 4.9 1007778
18:00+28з797483 0.0 1008633
21:00+29з897554 0.4 1010777